Hauptseite
METAR-TAF:

METAR-TAF

Flughäfen :

Villamontes, Bolivien

Breite: 21-15S, Länge: 063-27W, Höhe: 398 m

Beobachtung

Neuester Wetterbericht von vor 21 Stunden und 34 Minuten, um 20:00 UTC
Windstille
Temperatur 29°C
Luftfeuchtigkeit 48%
Luftdruck 1007 hPa
Sichtweite 10 km oder mehr

METAR: SLVM 222000Z 00000KT 9999 NSC 29/17 Q1007

Zeit: 13:34 (17:34 UTC)


TAF: fehlend

Wetterbeobachtungen und Prognosen von mehr als 4000 Flughäfen (METAR und TAF Bericht).

Die verfügbaren Stationen werden durch gelbe und rote Markierungen auf der Karte dargestellt.

Führen Sie die Maus auf sie, um den Namen der Station zu sehen.

Darauf klicken, um die Beobachtung von Wetterbeobachtungen und Prognosen zu sehen.

Um die Karte zu ändern : klicken Sie auf den grünen Tasten mit einem schwarzen Kreuz Zum Vergrößern, auf den grünen Button mit einem Gedankenstrich zu verkleinern, oder auf die grünen Pfeile für benachbarte Karten.


METAR-TAF: